This is the latest recevied weather packets stored in our database for station/object XW7RMR. If no packets are shown the sender has not sent any weather packets the latest 10 day(s).
| Time | Temp. | Humidity | Pressure | Rain* | Wind** | Luminosity | Snow |
|---|---|---|---|---|---|---|---|
| 1777770228 | 20° C | 66% | 1010.5 hPa | 0 mm | - | 209 W/m² | - |
| 1777769925 | 20.56° C | 66% | 1010.6 hPa | 0 mm | - | 242 W/m² | - |
| 1777769623 | 20.56° C | 65% | 1010.5 hPa | 0 mm | - | 330 W/m² | - |
| 1777769318 | 20° C | 67% | 1010.4 hPa | 0 mm | - | 371 W/m² | - |
| 1777769016 | 20.56° C | 65% | 1010.4 hPa | 0 mm | - | 321 W/m² | - |
| 1777768714 | 20° C | 66% | 1010.2 hPa | 0 mm | - | 269 W/m² | - |
| 1777768410 | 20° C | 67% | 1010.2 hPa | 0 mm | - | 217 W/m² | - |
| 1777768107 | 20° C | 67% | 1010.1 hPa | 0 mm | - | 200 W/m² | - |
| 1777767804 | 20° C | 66% | 1010.2 hPa | 0 mm | - | 189 W/m² | - |
| 1777767501 | 20° C | 67% | 1010.1 hPa | 0 mm | - | 182 W/m² | - |
| 1777767197 | 20° C | 67% | 1010.2 hPa | 0 mm | - | 177 W/m² | - |
| 1777766895 | 20.56° C | 65% | 1010.5 hPa | 0 mm | - | 180 W/m² | - |
| 1777766592 | 20° C | 66% | 1010.3 hPa | 0 mm | - | 185 W/m² | - |
| 1777766289 | 19.44° C | 67% | 1010.4 hPa | 0 mm | - | 188 W/m² | - |
| 1777765986 | 20° C | 65% | 1010.4 hPa | 0 mm | - | 190 W/m² | - |
| 1777765683 | 20° C | 66% | 1010.3 hPa | 0 mm | - | 195 W/m² | - |
| 1777765380 | 20° C | 65% | 1010.4 hPa | 0 mm | - | 201 W/m² | - |
| 1777765076 | 20.56° C | 65% | 1010.5 hPa | 0 mm | - | 213 W/m² | - |
| 1777764773 | 20.56° C | 64% | 1010.6 hPa | 0 mm | - | 220 W/m² | - |
| 1777764469 | 20° C | 64% | 1010.8 hPa | 0 mm | - | 224 W/m² | - |
| 1777764166 | 20.56° C | 62% | 1010.8 hPa | 0 mm | - | 190 W/m² | - |
| 1777763862 | 20.56° C | 62% | 1011 hPa | 0 mm | - | 197 W/m² | - |
| 1777763560 | 20.56° C | 61% | 1011 hPa | 0 mm | - | 196 W/m² | - |
| 1777763259 | 21.11° C | 60% | 1010.9 hPa | 0 mm | - | 248 W/m² | - |
| 1777762957 | 21.11° C | 62% | 1011.2 hPa | 0 mm | - | 446 W/m² | - |
* Rain latest hour (hover to see other rain measurements)
** Current wind speed in m/s (hover to see current wind gust speed)